Location: Radford
(37.1320°N, 80.5770°W)
Time: 11:43:46
(UTC-04:00)

Daily predictions for brighter satellites

Satellite Brightness Start Highest point End
(mag) Time Altitude Azimuth Time Altitude Azimuth Time Altitude Azimuth
ATLAS 2AS CENTAUR R/B 4.3 20:17:32 10° NNW 20:23:49 25° NE 20:29:45 10° E
Cosmos 2181 Rocket 4.4 20:18:28 10° N 20:24:54 75° W 20:31:19 10° S
COSMOS 2428 3.1 20:19:53 10° S 20:25:12 41° ESE 20:30:33 10° NE
CZ-2D R/B 3.6 20:22:08 10° SE 20:25:44 43° ENE 20:29:22 10° N
FengYun 1-2 T 4.4 20:20:41 10° SSE 20:26:16 83° WSW 20:31:57 10° NNW
SL-16 R/B 4.5 20:21:22 10° WSW 20:26:19 30° WNW 20:31:17 10° N
H-2A R/B 2.9 20:21:12 10° W 20:26:43 24° SW 20:28:59 10° SSE
Cosmos 2333 4.5 20:23:08 10° S 20:28:30 46° ESE 20:33:52 10° NE
FREGAT/IRIS 2.7 20:26:23 10° S 20:29:20 77° W 20:32:17 10° NNW
Cosmos 1844 Rocket 3.4 20:30:25 10° N 20:35:38 36° ENE 20:40:48 10° SE
Cosmos 1455 3.7 20:34:35 10° SE 20:37:13 18° E 20:39:53 10° NE
Cosmos 2263 Rocket 3.5 20:32:10 10° NW 20:37:32 43° WSW 20:42:50 10° S
Cosmos 2237 Rocket 3.5 20:38:34 10° SE 20:42:09 18° E 20:45:45 10° ENE
Cosmos 2219 Rocket 2.6 20:37:42 10° S 20:42:56 39° ESE 20:48:10 10° NE
Cosmos 2074 Rocket 4.1 20:37:03 10° S 20:43:21 85° W 20:49:40 10° N
ERS-2 2.3 20:40:34 10° SSE 20:44:07 54° ENE 20:47:43 10° N
Cosmos 1892 3.8 20:41:25 10° NNE 20:44:45 26° ENE 20:47:46 11° SE
NOSS 2-1 (E) 3.0 20:44:24 10° SSW 20:47:59 71° ESE 20:51:50 10° NE
Cosmos 1610 Rocket 4.4 20:43:41 10° S 20:49:45 71° E 20:55:53 10° N
ATLAS CENTAUR R/B 2.1 20:47:23 10° SSE 20:50:18 23° ESE 20:53:18 10° ENE
Cosmos 2278 Rocket 3.9 20:48:40 10° NNE 20:52:23 17° NE 20:55:31 12° E
USA 186 1.0 20:56:09 19° SSE 20:57:28 49° ENE 20:59:40 10° N
Resurs 1-3 3.9 20:53:58 10° SSE 20:58:09 47° ENE 21:02:23 10° N
Cosmos 1666 Rocket 3.8 20:54:29 10° N 20:58:51 49° E 21:03:03 11° SSE
NOSS 3-3 (A) 3.9 20:53:43 10° SSW 20:59:33 61° ESE 21:05:54 10° NE
NOSS 3-3 (C) 3.9 20:53:50 10° SSW 20:59:40 61° ESE 21:06:00 10° NE
H-2A R/B 3.9 20:58:30 10° E 21:00:04 12° ENE 21:01:52 10° NE
OAO 2 Rocket 3.4 20:56:02 10° W 21:01:13 68° S 21:04:58 18° ESE
YAOGAN 6 2.5 21:01:47 10° SSE 21:05:15 69° ENE 21:08:52 10° N
Meteor 2-21 Rocket 4.5 20:59:31 10° S 21:05:31 62° E 21:11:35 10° NNE
Cosmos 494 Rocket 4.3 21:02:17 10° NNW 21:07:28 67° WSW 21:12:38 10° S
Cosmos 1809 Rocket 4.5 21:03:22 10° S 21:09:31 90° W 21:15:44 10° N
USA 267 4.0 21:07:44 10° ENE 21:13:08 27° SE 21:18:30 10° S
Cosmos 1340 3.2 21:10:15 10° SSW 21:13:59 62° W 21:17:46 10° N
Sich 1 2.9 21:09:42 10° N 21:14:00 82° E 21:18:08 11° S
In-Cosmos 22 Rocket 4.4 21:09:03 10° NNW 21:14:29 68° W 21:19:47 10° S
SAR-Lupe-3 4.5 21:11:05 10° NNE 21:14:39 63° ESE 21:18:11 10° S
Cosmos 1151 Rocket 3.7 21:13:26 23° SE 21:15:14 32° E 21:19:01 10° NNE
Nadezhda 3 Rocket 4.0 21:09:02 10° N 21:15:21 76° E 21:21:42 10° S
Cosmos 2251 Rocket 3.5 21:13:21 10° NNW 21:18:45 83° ENE 21:23:05 16° SSE
Cosmos 1939 Rocket 2.8 21:16:06 12° S 21:19:37 83° W 21:23:32 10° NNW
Envisat 4.1 21:19:10 10° S 21:23:58 43° W 21:28:49 10° NNW
Cosmos 1825 3.5 21:25:35 10° NNE 21:28:24 24° ENE 21:28:24 24° ENE
Meteor 2-14 Rocket 4.5 21:22:55 10° S 21:29:00 84° W 21:35:09 10° N
SL-16 R/B 4.0 21:33:18 14° ENE 21:33:18 14° ENE 21:34:25 10° ENE
Meteor 2-3 Rocket 3.6 21:25:14 10° N 21:30:50 71° E 21:34:38 21° SSE
Cosmos 2098 Rocket 4.2 21:31:01 28° E 21:31:01 28° E 21:34:35 10° NE
Cosmos 1633 Rocket 3.0 21:28:26 10° N 21:32:48 82° W 21:35:51 19° S
Cosmos 1869 4.4 21:34:42 27° ENE 21:34:42 27° ENE 21:37:27 10° NNE
Cosmos 2228 Rocket 3.0 21:32:02 24° SSE 21:34:28 59° E 21:38:48 10° NNE
Meteor 2-16 Rocket 4.4 21:31:44 10° S 21:37:52 87° W 21:44:03 10° N
SL-8 R/B 3.6 21:33:31 10° SW 21:38:15 68° SE 21:41:34 20° ENE
Cosmos 1515 Rocket 3.5 21:37:19 24° S 21:39:57 69° E 21:44:24 10° NNE
SL-24 R/B - RUBIN 2 3.7 21:36:28 10° NW 21:40:47 67° WSW 21:42:34 34° S
ARGOS 3.6 21:44:34 37° ESE 21:45:52 44° ENE 21:50:56 10° N
BREEZE-M DEB (TANK) 4.3 21:49:04 10° NNW 21:51:02 17° NNE 21:51:02 17° NNE
GEOS 3 Rocket 3.6 21:46:28 10° NE 21:51:43 55° ESE 21:56:48 10° SSW
SL-08 RB Rocket 4.4 21:52:57 35° ENE 21:52:57 35° ENE 21:56:50 10° N
Resurs 01 Rocket 2.9 21:52:33 13° SSW 21:56:07 37° W 22:00:16 10° NNW
Cosmos 1980 3.6 21:51:59 10° SSW 21:57:40 89° WNW 22:03:23 10° NNE
Cosmos 1959 Rocket 4.3 22:00:08 25° S 22:03:54 80° E 22:10:03 10° N
Cosmos 2333 Rocket 3.1 21:58:34 10° SW 22:04:01 48° WNW 22:09:30 10° N
Cosmos 1727 Rocket 4.2 21:58:12 10° N 22:04:08 47° E 22:04:57 45° ESE
Spot 2 Rocket 4.4 22:03:43 19° SSW 22:07:03 44° W 22:11:55 10° NNW
Meteor 2-10 Rocket 3.6 22:11:14 58° SE 22:12:07 67° E 22:17:53 10° NNE
Cosmos 1455 4.5 22:09:34 10° SW 22:12:40 24° WNW 22:15:49 10° NNW
Cosmos 1470 Rocket 4.1 22:09:35 10° NNW 22:13:54 54° W 22:14:52 44° SW
ATLAS 2AS CENTAUR R/B 2.8 22:07:57 10° NNW 22:15:49 84° WSW 22:18:18 46° SSE
Cosmos 2218 Rocket 4.0 22:11:56 22° S 22:16:11 81° W 22:22:37 10° N
SL-08 R/B 4.4 22:15:09 41° S 22:17:34 83° E 22:24:00 10° N
Cosmos 1844 Rocket 4.3 22:14:34 10° NW 22:19:20 28° WSW 22:22:47 16° SSW
Terra 3.9 22:21:54 16° NE 22:21:54 16° NE 22:23:37 10° NNE
ATLAS 2A CENTAUR R/B 4.2 22:10:01 10° SW 22:24:16 34° S 22:24:57 34° SSE
Cosmos 2237 Rocket 2.8 22:20:11 10° SW 22:25:40 55° WNW 22:31:12 10° NNE
Cosmos 1408 3.9 22:22:24 10° NNW 22:25:16 39° WNW 22:25:16 39° WNW
Cosmos 2219 Rocket 4.2 22:22:13 10° WSW 22:26:57 27° WNW 22:31:42 10° N
ATLAS CENTAUR R/B 3.6 22:26:14 10° WSW 22:29:09 22° NW 22:32:12 10° N
SPOT 5 3.8 22:30:50 35° NNE 22:30:50 35° NNE 22:33:48 10° N
SPOT 1/Viking Rocket 4.3 22:31:21 42° NE 22:31:21 42° NE 22:35:26 10° N
Cosmos 2366 rocket 4.2 22:27:19 30° SSW 22:30:33 68° W 22:36:48 10° N
USA 81 4.1 22:28:15 10° N 22:32:58 68° NNE 22:32:58 68° NNE
MetOp-A 4.3 22:33:30 60° SW 22:34:08 65° WSW 22:39:28 10° NNW
Cosmos 2278 Rocket 2.3 22:31:20 10° NNW 22:36:58 66° WSW 22:37:23 64° SW
H-2A R/B 2.1 22:39:07 73° WNW 22:39:07 73° WNW 22:43:53 10° NNW
NOSS 3-4 (A) 4.1 22:39:05 10° NNW 22:46:02 54° NE 22:46:43 53° ENE
NOSS 3-4 (C) 4.1 22:39:12 10° NNW 22:46:09 54° NE 22:46:49 52° ENE
Cosmos 407 Rocket 4.0 22:44:06 10° NNW 22:48:01 52° N 22:48:01 52° N
ERS-1 Rocket 3.4 22:50:18 59° WNW 22:50:18 59° WNW 22:54:42 10° NNW
USA 267 3.3 22:49:55 10° NE 22:56:26 73° NW 23:02:56 10° SW
Cosmos 2344 3.4 23:10:53 83° ESE 23:10:53 83° ESE 23:18:58 10° NE
SL-16 R/B 2.9 23:15:04 51° NW 23:15:04 51° NW 23:19:53 10° NNE
USA 234 4.2 23:27:52 38° NE 23:28:13 38° NNE 23:34:09 10° NNW
Cosmos 1943 Rocket 4.3 23:29:58 10° N 23:32:07 17° NNE 23:32:07 17° NNE
